User: anonymous   Login
Location: Unspecified
(0.0000°N, 0.0000°E)
Time: 07:06:12
(UTC+00:00)
Language:

Vanguard 1 Rocket - Orbit

View from above orbital plane
View from above orbital plane
View from above satellite
View from above satellite

Ground track
Ground track

The orbit data is extracted from the following two-line orbital elements,

1    16U 58002A   17174.94017982 -.00000120 +00000-0 -17140-3 0  9993
2    16 034.2730 060.3454 2027517 324.0810 023.8757 10.48636943344458
Epoch (UTC): 23 June 2017 22:33:51
Eccentricity: 0.2027517
inclination: 34.2730°
perigee height: 651 km
apogee height: 4226 km
right ascension of ascending node: 60.3454°
argument of perigee: 324.0810°
revolutions per day: 10.48636943
mean anomaly at epoch: 23.8757°
orbit number at epoch: 34445

The dashed part of the orbit path shows where the satellite is in the earth's shadow,  

DLR